[[{"header":{"parameterUnit":"m.s-1","parameterCategory":1,"la1":30.2991,"la2":30.254,"lo1":-89.0895,"lo2":-89.0444,"dy":0.0017,"dx":0.0017,"nx":28,"ny":28,"refTime":"2023-03-22T21:00:00:Z","depth":0,"parameterNumber":2,"parameterNumberName":"U-component_of_WINDS"},"data":[0,0,0,0,0,0,0,0,0,0,0,0,0,0,0,0,0,0,0,0,0,0,0,0,0,0,0,0,0,0,0,0,0,0,0,0,0,0,0,0,0,0,0,0,0,0,0,0,0,0,0,0,0,0,0,0,0,0,-3.4477,-3.4477,0,-3.4541,-3.4542,-3.4543,-3.4524,-3.4523,-3.4521,-3.452,-3.4586,-3.4589,-3.4592,0,0,0,0,0,0,0,0,0,0,0,0,0,-3.4338,-3.434,-3.4477,-3.4477,-3.4478,-3.4541,-3.4542,-3.4543,-3.4524,-3.4523,-3.4521,-3.4519,-3.4585,-3.4588,-3.4592,0,0,0,0,0,0,0,0,0,0,0,0,0,-3.44,-3.4341,-3.4476,-3.4477,-3.4477,-3.4541,-3.4542,-3.4543,-3.4525,-3.4523,-3.4521,-3.4519,-3.4584,-3.4588,-3.4592,-3.466,0,0,-3.4606,-3.4608,0,0,0,0,0,0,0,0,-3.4396,-3.4405,-3.4476,-3.4477,-3.4477,-3.4522,-3.4517,-3.4582,-3.4525,-3.4507,-3.452,-3.4518,-3.4566,-3.4572,-3.4588,-3.4663,-3.4666,-3.4606,-3.4609,-3.4611,-3.4612,0,0,0,0,0,0,0,-3.4392,-3.4402,-3.4502,-3.4477,-3.4478,-3.4473,-3.448,-3.4529,-3.4547,-3.4508,-3.4507,-3.4515,-3.4566,-3.4584,-3.459,-3.4667,-3.4606,-3.461,-3.4613,-3.4615,-3.4799,-3.4801,0,0,0,0,0,0,-3.4387,-3.4398,-3.45,-3.4504,-3.4431,-3.4478,-3.4485,-3.451,-3.4546,-3.455,-3.4516,-3.4514,-3.4578,-3.4585,-3.4592,-3.4672,-3.4611,-3.4615,-3.4618,-3.4797,-3.48,-3.4802,0,0,0,0,0,0,-3.4384,-3.4396,-3.4497,-3.4451,-3.4464,-3.4482,-3.451,-3.4512,-3.453,-3.4552,-3.4555,-3.4531,-3.4576,-3.4586,-3.4643,-3.4674,-3.4617,-3.4621,-3.4794,-3.4798,-3.4801,-3.4834,0,0,0,0,0,0,-3.438,-3.4395,-3.4421,-3.4452,-3.4466,-3.4547,-3.4512,-3.4515,-3.4538,-3.4535,-3.4567,-3.4571,-3.4575,-3.4636,-3.4647,-3.4679,-3.4625,-3.4792,-3.4796,-3.48,-3.483,-3.4838,-3.4845,0,0,0,0,0,-3.4375,-3.4428,-3.4422,-3.4435,-3.4498,-3.4549,-3.4557,-3.4562,-3.4541,-3.4566,-3.4581,-3.457,-3.467,-3.4642,-3.4655,-3.4689,-3.479,-3.4795,-3.48,-3.4827,-3.4836,-3.4845,0,0,0,0,0,0,-3.44,-3.4432,-3.4426,-3.449,-3.4517,-3.4546,-3.4578,-3.4572,-3.4605,-3.4601,-3.4605,-3.4613,-3.4671,-3.4686,-3.4655,-3.4756,-3.4727,-3.4734,-3.4743,-3.4752,-3.476,-3.4754,-3.4628,0,0,0,0,0,-3.4413,-3.4451,-3.4477,-3.4531,-3.4545,-3.4559,-3.4582,-3.4583,-3.4611,-3.4622,-3.4641,-3.4668,-3.4706,-3.4731,-3.4767,-3.4833,-3.4839,-3.4863,-3.487,-3.4876,-3.4882,-3.4917,-3.4928,-3.4818,-3.4818,-3.4818,0,0,-3.4439,-3.4462,-3.4485,-3.4536,-3.4557,-3.4597,-3.4569,-3.4612,-3.4641,-3.4629,-3.4683,-3.4698,-3.473,-3.4791,-3.482,-3.4806,-3.4914,-3.4882,-3.4887,-3.4889,-3.4923,-3.4934,-3.4943,-3.4822,-3.4821,-3.4821,0,0,-3.4507,-3.4529,-3.4575,-3.4597,-3.463,-3.464,-3.4651,-3.4681,-3.4691,-3.4746,-3.4737,-3.4773,-3.4838,-3.486,-3.488,-3.4958,-3.4949,-3.497,-3.5007,-3.5042,-3.5051,-3.5058,-3.5084,-3.5094,-3.4976,-3.4977,-3.4977,0,-3.4536,-3.4595,-3.46,-3.4644,-3.4666,-3.4658,-3.4705,-3.4726,-3.4769,-3.4784,-3.4769,-3.485,-3.4871,-3.4937,-3.4956,-3.4974,-3.4986,-3.4965,-3.5049,-3.5057,-3.5064,-3.5089,-3.5099,-3.4979,-3.4978,-3.4978,-3.4978,0,-3.4628,-3.4669,-3.4703,-3.4744,-3.4771,-3.4816,-3.4829,-3.4855,-3.4855,-3.4866,-3.4923,-3.4948,-3.4988,-3.5005,-3.5005,-3.5071,-3.5062,-3.5048,-3.5018,-3.5076,-3.51,-3.511,-3.4982,-3.4981,-3.498,-3.498,0,0,-3.4711,-3.4755,-3.4767,-3.4786,-3.4822,-3.4854,-3.4899,-3.4939,-3.4961,-3.4992,-3.5029,-3.5085,-3.5072,-3.5095,-3.5098,-3.5129,-3.5188,-3.5111,-3.5112,-3.5122,-3.5261,-3.527,-3.5281,-3.5183,-3.5185,-3.5187,-3.5258,0,-3.478,-3.4859,-3.4866,-3.4937,-3.4974,-3.4968,-3.5008,-3.5034,-3.5047,-3.508,-3.5095,-3.5133,-3.5115,-3.5128,-3.5159,-3.5174,-3.5215,-3.5169,-3.5217,-3.5218,-3.5206,-3.5293,-3.5302,-3.5368,-3.5268,-3.5269,-3.527,0,-3.4871,-3.4904,-3.4979,-3.5009,-3.5025,-3.5061,-3.5098,-3.5131,-3.5161,-3.5168,-3.5194,-3.5193,-3.524,-3.5211,-3.5275,-3.5243,-3.5264,-3.5274,-3.5277,-3.5279,-3.5246,-3.5296,-3.539,-3.5399,-3.5285,-3.5284,-3.5283,0,-3.4921,-3.4985,-3.5037,-3.5054,-3.5091,-3.5116,-3.5133,-3.5161,-3.5185,-3.5218,-3.5233,-3.5272,-3.5292,-3.5322,-3.5331,-3.5309,-3.5394,-3.5366,-3.54,-3.54,-3.5416,-3.5414,-3.5512,-3.5433,-3.5433,-3.5433,-3.5433,0,-3.4997,-3.5042,-3.506,-3.5092,-3.5143,-3.5151,-3.5201,-3.5217,-3.5243,-3.5277,-3.5276,-3.5308,-3.532,-3.5355,-3.5364,-3.5414,-3.5424,-3.5431,-3.5432,-3.5429,-3.5428,-3.544,-3.5435,-3.5436,-3.5435,-3.5435,-3.5434,0,-3.506,-3.5074,-3.513,-3.5162,-3.5171,-3.5207,-3.5234,-3.5265,-3.5278,-3.5322,-3.5333,-3.5353,-3.5395,-3.5408,-3.5458,-3.5463,-3.5522,-3.5521,-3.5511,-3.5511,-3.5543,-3.5539,-3.565,-3.5664,-3.5579,-3.558,-3.558,0,-3.5105,-3.514,-3.5176,-3.5199,-3.5217,-3.5254,-3.5278,-3.5289,-3.5314,-3.5352,-3.5378,-3.5419,-3.5452,-3.5518,-3.5537,-3.5576,-3.5573,-3.561,-3.5579,-3.5575,-3.5571,-3.5568,-3.5571,-3.5614,-3.5615,-3.5616,-3.5617,0,-3.5184,-3.519,-3.5225,-3.5262,-3.5291,-3.5321,-3.535,-3.537,-3.5385,-3.5413,-3.5455,-3.5481,-3.5532,-3.5572,-3.5612,-3.5629,-3.5625,-3.5627,-3.5636,-3.5632,-3.5625,-3.5627,-3.5524,-3.5623,-3.5623,-3.5622,-3.5622,-3.5622,-3.5239,-3.5269,-3.5298,-3.5337,-3.5361,-3.5388,-3.5418,-3.5436,-3.5471,-3.5513,-3.5518,-3.5563,-3.5593,-3.5645,-3.5665,-3.57,-3.569,-3.5704,-3.5707,-3.571,-3.5711,-3.5622,-3.5708,-3.5708,-3.5708,-3.5707,-3.5707,0,-3.5315,-3.5335,-3.5371,-3.5411,-3.5442,-3.5437,-3.5469,-3.5495,-3.5535,-3.5563,-3.5596,-3.5644,-3.5684,-3.5707,-3.5746,-3.577,-3.5769,-3.578,-3.5777,-3.5781,-3.5719,-3.5706,-3.578,-3.578,-3.578,-3.578,-3.578,-3.578,-3.5359,-3.5409,-3.5419,-3.5481,-3.55,-3.5544,-3.5562,-3.5588,-3.561,-3.5664,-3.5697,-3.5712,-3.5739,-3.578,-3.5816,-3.5822,-3.5836,-3.5847,-3.5851,-3.5793,-3.5785,-3.5778,-3.5765,-3.5851,-3.5851,-3.591,-3.591,-3.5911]},{"header":{"parameterUnit":"m.s-1","parameterCategory":1,"la1":30.2991,"la2":30.254,"lo1":-89.0895,"lo2":-89.0444,"dy":0.0017,"dx":0.0017,"nx":28,"ny":28,"refTime":"2023-03-22T21:00:00:Z","depth":0,"parameterNumber":3,"parameterNumberName":"V-component_of_WINDS"},"data":[0,0,0,0,0,0,0,0,0,0,0,0,0,0,0,0,0,0,0,0,0,0,0,0,0,0,0,0,0,0,0,0,0,0,0,0,0,0,0,0,0,0,0,0,0,0,0,0,0,0,0,0,0,0,0,0,0,0,3.4615,3.4616,0,3.4743,3.4744,3.4746,3.4827,3.4827,3.4828,3.4828,3.4956,3.4959,3.4962,0,0,0,0,0,0,0,0,0,0,0,0,0,3.444,3.4443,3.4615,3.4617,3.4618,3.4743,3.4744,3.4746,3.4827,3.4827,3.4828,3.4828,3.4955,3.4959,3.4962,0,0,0,0,0,0,0,0,0,0,0,0,0,3.4537,3.4444,3.4615,3.4673,3.468,3.4742,3.4744,3.4747,3.4827,3.4827,3.4828,3.4829,3.4954,3.4958,3.4963,3.4976,0,0,3.4976,3.4978,0,0,0,0,0,0,0,0,3.4531,3.4543,3.4663,3.467,3.4677,3.477,3.473,3.4823,3.4826,3.4771,3.4828,3.4829,3.4893,3.4903,3.4925,3.4981,3.4987,3.4977,3.4979,3.4981,3.4982,0,0,0,0,0,0,0,3.4524,3.4538,3.4666,3.4665,3.4673,3.4693,3.4708,3.4748,3.4826,3.4776,3.4782,3.4796,3.4897,3.4921,3.4929,3.4989,3.4976,3.498,3.4983,3.4985,3.5065,3.5065,0,0,0,0,0,0,3.4509,3.4532,3.4662,3.4669,3.4604,3.4696,3.4712,3.4739,3.4826,3.484,3.4795,3.4799,3.4913,3.4923,3.4933,3.4957,3.4981,3.4985,3.4988,3.5066,3.5065,3.5065,0,0,0,0,0,0,3.4505,3.4519,3.4656,3.4602,3.4621,3.4698,3.4728,3.4741,3.4765,3.4841,3.4855,3.4805,3.4914,3.4927,3.4965,3.4962,3.4987,3.4991,3.5067,3.5066,3.5065,3.5002,0,0,0,0,0,0,3.4499,3.4517,3.4523,3.4602,3.4624,3.4686,3.4728,3.4743,3.4773,3.4779,3.4854,3.4867,3.4915,3.4958,3.497,3.4969,3.4995,3.5067,3.5066,3.5065,3.5005,3.4999,3.4995,0,0,0,0,0,3.4493,3.4499,3.4523,3.4538,3.4633,3.4686,3.4699,3.4755,3.4772,3.4779,3.4828,3.4864,3.496,3.4962,3.4975,3.4976,3.5068,3.5066,3.5065,3.5007,3.5,3.4995,0,0,0,0,0,0,3.4417,3.451,3.4538,3.457,3.462,3.47,3.471,3.4746,3.479,3.4795,3.4862,3.4878,3.491,3.4946,3.4946,3.4994,3.5018,3.502,3.497,3.4964,3.4959,3.495,3.4998,0,0,0,0,0,3.4404,3.444,3.4519,3.454,3.4564,3.4632,3.4657,3.4697,3.475,3.4771,3.4823,3.4873,3.4915,3.4941,3.4983,3.501,3.5028,3.5017,3.5012,3.5007,3.5008,3.5028,3.5024,3.5061,3.5061,3.5061,0,0,3.4377,3.4433,3.4451,3.4526,3.4569,3.4605,3.4649,3.4685,3.4712,3.4776,3.4817,3.4856,3.4917,3.495,3.4967,3.4981,3.5002,3.5006,3.5001,3.5005,3.5026,3.5022,3.5019,3.506,3.506,3.506,0,0,3.4349,3.4393,3.4417,3.446,3.4525,3.4571,3.4576,3.4651,3.4681,3.4722,3.4772,3.4805,3.4875,3.4917,3.4947,3.4936,3.4972,3.4947,3.4921,3.4939,3.4936,3.4934,3.4932,3.493,3.4948,3.4947,3.4947,0,3.4308,3.4364,3.4424,3.4458,3.4491,3.4552,3.4577,3.4615,3.469,3.4711,3.4725,3.4816,3.4861,3.4906,3.4904,3.4925,3.4934,3.494,3.4932,3.493,3.4929,3.4928,3.4927,3.4944,3.4945,3.4945,3.4945,0,3.4312,3.435,3.4362,3.4435,3.4468,3.4497,3.4562,3.4588,3.4625,3.4669,3.4711,3.4767,3.4823,3.4836,3.4871,3.4887,3.4894,3.4919,3.4945,3.4921,3.4922,3.4922,3.494,3.4941,3.4942,3.4943,0,0,3.4239,3.4346,3.435,3.4385,3.4462,3.4493,3.4524,3.4581,3.4603,3.4652,3.4682,3.4741,3.4765,3.4799,3.484,3.4855,3.4846,3.4879,3.4881,3.4873,3.4869,3.4851,3.485,3.4869,3.4869,3.4869,3.4865,0,3.4224,3.4286,3.4342,3.4383,3.4421,3.448,3.4508,3.4558,3.46,3.4638,3.4684,3.4726,3.4754,3.4776,3.4793,3.4843,3.4846,3.4844,3.4898,3.4899,3.4884,3.485,3.4831,3.4824,3.4865,3.4865,3.4865,0,3.4214,3.4264,3.4309,3.4385,3.4403,3.4427,3.4485,3.4519,3.4578,3.4607,3.4646,3.4689,3.4726,3.4747,3.48,3.4797,3.4822,3.485,3.4851,3.486,3.4882,3.486,3.4822,3.4822,3.4865,3.4865,3.4865,0,3.416,3.4237,3.4276,3.4303,3.4391,3.4408,3.4445,3.4504,3.4535,3.4585,3.4606,3.4658,3.4687,3.4726,3.4782,3.4791,3.4829,3.4854,3.4856,3.4854,3.4863,3.4862,3.4831,3.4875,3.4875,3.4875,3.4875,0,3.4138,3.4165,3.4253,3.4277,3.4308,3.4372,3.4402,3.4444,3.4496,3.453,3.4582,3.4612,3.4683,3.4721,3.4765,3.4803,3.4815,3.484,3.4852,3.4837,3.4834,3.4856,3.4859,3.4875,3.4875,3.4875,3.4875,0,3.4084,3.4144,3.419,3.427,3.4291,3.4311,3.438,3.4405,3.4451,3.4492,3.4505,3.4576,3.4625,3.4684,3.475,3.4779,3.4814,3.483,3.4795,3.4802,3.4801,3.4801,3.4785,3.4787,3.4827,3.4826,3.4826,0,3.4067,3.4089,3.4173,3.4199,3.4236,3.4277,3.431,3.4373,3.4405,3.4474,3.4491,3.4544,3.459,3.4663,3.472,3.4772,3.4791,3.4782,3.4799,3.4784,3.4794,3.4793,3.4796,3.4778,3.4777,3.4777,3.4776,0,3.4032,3.4061,3.4107,3.4163,3.4201,3.4247,3.4296,3.4315,3.4389,3.4421,3.4472,3.4508,3.4577,3.4628,3.4687,3.4725,3.4763,3.477,3.4774,3.476,3.4739,3.4753,3.4785,3.4771,3.4771,3.4772,3.4772,3.4772,3.3998,3.4022,3.4085,3.4134,3.4178,3.4223,3.4252,3.4301,3.4345,3.4408,3.4442,3.4492,3.4551,3.4635,3.4671,3.4711,3.4725,3.4729,3.4731,3.4732,3.4728,3.4731,3.4722,3.4722,3.4722,3.4722,3.4723,0,3.3969,3.4012,3.4057,3.4125,3.4164,3.4197,3.4253,3.4284,3.4328,3.438,3.4424,3.4483,3.4534,3.4596,3.465,3.4671,3.469,3.4683,3.4683,3.4692,3.4712,3.4704,3.4667,3.4667,3.4667,3.4667,3.4667,3.4667,3.3958,3.4,3.4037,3.4101,3.4145,3.4196,3.4226,3.4268,3.431,3.4374,3.4417,3.4458,3.4514,3.4574,3.4622,3.4639,3.4657,3.4646,3.4668,3.4685,3.469,3.4695,3.4689,3.4649,3.4649,3.4645,3.4645,3.4645]}]]